Regional Weather Roundup
Issued by NWS Green Bay, WI

Home | Current Version | Previous Version | Text Only | Print | Product List | Glossary On
Versions: 1 2 3 4 5 6 7 8 9 10 11 12 13 14 15 16 17 18 19 20 21 22 23 24 25 26 27 28 29 30 31 32 33 34 35 36 37 38 39 40 41 42 43 44 45 46 47 48 49 50
000
ASUS43 KGRB 240511
RWRGRB

NORTH-CENTRAL AND NORTHEAST WISCONSIN REGIONAL WEATHER ROUNDUP
NATIONAL WEATHER SERVICE GREEN BAY WI
1100 PM CST FRI FEB 23 2018

WIZ005-009-010>012-018-019-240600-
NORTH CENTRAL WISCONSIN

CITY           SKY/WX    TMP DP  RH WIND       PRES   REMARKS
IRONWOOD       CLOUDY    28  22  78 SW6       30.20R
MANITOWISH WTR CLOUDY    25  24  96 W6        30.18S
ARBOR VITAE    CLOUDY    27  23  87 W3        30.19S
EAGLE RIVER    CLOUDY    27  21  79 NW5       30.18S
LAND O LAKES   CLOUDY    28  23  82 CALM      30.19S
RHINELANDER    CLOUDY    26  22  84 W8        30.21R
PHILLIPS       FAIR      17  17  98 SW3       30.21S
ANTIGO         CLOUDY    24  20  85 NW6       30.21F
TOMAHAWK       FAIR      13  11  92 CALM      30.23S
MERRILL        FOG       17  15  95 CALM      30.24S VSB 1/2
$$

WIZ013-073-240600-
NORTHEAST WISCONSIN

CITY           SKY/WX    TMP DP  RH WIND       PRES   REMARKS
IRON MOUNTAIN  CLOUDY    30  22  72 W12       30.19R
MARINETTE      CLOUDY    33  22  63 VRB6      30.25S
OCONTO         CLOUDY    32  23  69 NW3       30.25S
$$

WIZ017-030-035>037-045-240600-
CENTRAL WISCONSIN

CITY           SKY/WX    TMP DP  RH WIND       PRES   REMARKS
MEDFORD        FAIR      17  16  93 W6        30.22F FOG     WCI   9
WAUSAU         FAIR      24  20  84 W5        30.23S FOG
MOSINEE        NOT AVBL
MARSHFIELD     FAIR      19  18  95 W3        30.24S FOG
WISC RAPIDS    FAIR      25  19  78 NW7       30.27F
STEVENS POINT  FAIR      26  21  81 W3        30.26S
WAUPACA        CLOUDY    31  22  70 NW6       30.27S
SHAWANO        CLOUDY    32  23  70 NW10      30.25S
CLINTONVILLE   CLOUDY    31  21  67 NW8       30.26S
WAUTOMA        CLOUDY    28  22  78 NW12      30.27F
$$

WIZ038-039-048-051-240600-
FOX VALLEY

CITY           SKY/WX    TMP DP  RH WIND       PRES   REMARKS
NWS GREEN BAY  CLOUDY    32  22  66 NW7       30.26S
APPLETON       CLOUDY    30  19  64 NW10      30.24S
OSHKOSH        CLOUDY    30  23  75 NW10      30.25F
FOND DU LAC    CLOUDY    31  22  69 N9        30.26R
$$

WIZ022-050-052-240600-
EAST CENTRAL WISCONSIN

CITY           SKY/WX    TMP DP  RH WIND       PRES   REMARKS
EPHRAIM        CLOUDY    32  22  66 NW6       30.22R
WASHINGTON ISL CLOUDY    32  25  74 NW8       30.22S
STURGEON BAY   CLOUDY    32  24  72 NW9       30.24S
MANITOWOC      CLOUDY    32  24  72 NW12G20   30.26S
SHEBOYGAN      CLOUDY    32  25  75 NW7       30.25S
$$

LMZ563-521-522-541>543-240600-
LAKESHORE

STATION/POSITION TIME  TEMP    WIND        PRES    VSBY  WAVE
                       AIR SEA DIR/SP/G                  HT/PER
                 (UTC) (F)     (DEG/KT/KT) (MB)    (MI)  (FT/S)
SHEBOYGAN LKSHOR 0500   32     340/  9/ 11 1025.3R
KEWAUNEE LKSHORE 0448   33     310/  4/  6 1023.3F
NORTHPORT PIER   0440   33                 1023.4R
SISTER BAY LKSHO 0420   33     340/ 10/ 10   N/A
MENOMINEE LKSHOR 0448   33     290/  8/ 11 1023.7R
$$




USA.gov is the U.S. government's official web portal to all federal, state and local government web resources and services.